Weather History for Rexburg, ID

Change the Weather History Date:

Thursday, May 30, 2013

  Actual Average Record
Temperature  
Mean Temperature 53 °F 56 °F  
Max Temperature 62 °F 70 °F 88 °F (1986)
Min Temperature 43 °F 43 °F 32 °F (2004)
Degree Days  
Heating Degree Days 12 9  
Month to date heating degree days 330 383  
Since 1 July heating degree days 7674 7948  
Cooling Degree Days 0 0  
Month to date cooling degree days 2 0  
Year to date cooling degree days 2 0  
Growing Degree Days 2 (Base 50)    
Moisture  
Dew Point 37 °F    
Average Humidity 60    
Maximum Humidity 89    
Minimum Humidity 31    
Precipitation  
Precipitation 0.03 in 0.07 in 0.83 in (1999)
Month to date precipitation 1.24 1.69  
Year to date precipitation 4.25 5.80  
Sea Level Pressure  
Sea Level Pressure 29.86 in    
Wind  
Wind Speed 8 mph (SSW)    
Max Wind Speed 23 mph    
Max Gust Speed 30 mph    
Visibility 10 miles    
Events Rain    
T = Trace of Precipitation, MM = Missing Value Source: NWS Daily Summary

Daily Weather History Graph

Daily Weather History Graph

Search for Another Location

Airport:

Trip Planner

Search our weather history database for the weather conditions in past years. The results will help you decide how hot, cold, wet, or windy it might be!

Date:

Astronomy

May. 30, 2013 Rise Set
Actual Time 5:48 AM MDT 9:01 PM MDT
Civil Twilight 5:13 AM MDT 9:36 PM MDT
Nautical Twilight 4:28 AM MDT 10:21 PM MDT
Astronomical Twilight 3:33 AM MDT 11:17 PM MDT
Moon 12:57 AM MDT 12:09 PM MDT
Length of Visible Light 16h 22m
Length of Day
15h 12m
Waning Gibbous, 61% of the Moon is Illuminated
May 30
Waning Gibbous
May 31
Last Quarter
Jun 8
New
Jun 16
First Quarter
Jun 23
Full

Hourly Weather History & Observations

Time (MDT) Temp. Windchill Dew Point Humidity Pressure Visibility Wind Dir Wind Speed Gust Speed Precip Events Conditions
12:53 AM 46.9 °F - 39.0 °F 74% 29.75 in 10.0 mi South 3.5 mph - N/A   Mostly Cloudy
1:53 AM 45.0 °F - 39.0 °F 80% 29.81 in 10.0 mi Calm Calm - 0.01 in   Mostly Cloudy
2:53 AM 46.0 °F - 39.9 °F 79% 29.79 in 10.0 mi Calm Calm - 0.01 in Rain Light Rain
3:53 AM 45.0 °F 40.1 °F 39.0 °F 80% 29.79 in 10.0 mi South 9.2 mph - 0.00 in   Overcast
4:53 AM 44.1 °F 40.8 °F 39.9 °F 85% 29.80 in 10.0 mi South 5.8 mph - 0.00 in   Overcast
5:53 AM 43.0 °F 37.7 °F 39.0 °F 86% 29.83 in 10.0 mi South 9.2 mph - 0.00 in   Overcast
6:53 AM 43.0 °F 38.2 °F 37.9 °F 82% 29.86 in 10.0 mi SSW 8.1 mph - N/A   Overcast
7:53 AM 44.1 °F 39.0 °F 39.0 °F 82% 29.88 in 10.0 mi South 9.2 mph - N/A   Overcast
8:53 AM 44.1 °F 38.1 °F 39.0 °F 82% 29.89 in 10.0 mi SSW 11.5 mph - N/A   Overcast
9:53 AM 48.9 °F - 41.0 °F 74% 29.88 in 10.0 mi SW 11.5 mph - N/A   Mostly Cloudy
10:53 AM 53.1 °F - 39.0 °F 59% 29.87 in 10.0 mi SSW 12.7 mph - N/A   Clear
11:53 AM 54.0 °F - 37.0 °F 53% 29.87 in 10.0 mi SSW 10.4 mph - N/A   Clear
12:53 PM 55.0 °F - 39.0 °F 55% 29.87 in 10.0 mi SSW 15.0 mph 23.0 mph N/A   Overcast
1:53 PM 57.0 °F - 35.1 °F 44% 29.87 in 10.0 mi SW 18.4 mph 27.6 mph N/A   Mostly Cloudy
2:53 PM 55.9 °F - 37.0 °F 49% 29.88 in 10.0 mi NNE 10.4 mph 21.9 mph N/A   Mostly Cloudy
3:53 PM 57.0 °F - 36.0 °F 45% 29.87 in 10.0 mi Calm Calm - 0.00 in Rain Light Rain
4:53 PM 62.1 °F - 30.9 °F 31% 29.84 in 10.0 mi West 3.5 mph - 0.00 in   Mostly Cloudy
5:53 PM 59.0 °F - 28.9 °F 32% 29.86 in 10.0 mi SSE 3.5 mph - N/A   Overcast
6:53 PM 57.9 °F - 35.1 °F 42% 29.86 in 10.0 mi SSW 13.8 mph - 0.00 in Rain Light Rain
7:53 PM 55.9 °F - 32.0 °F 40% 29.88 in 10.0 mi South 11.5 mph - 0.00 in   Overcast
8:53 PM 53.1 °F - 35.1 °F 50% 29.90 in 10.0 mi SSW 11.5 mph 20.7 mph 0.00 in   Overcast
9:53 PM 48.9 °F - 39.0 °F 69% 29.92 in 10.0 mi SSW 4.6 mph - 0.01 in   Scattered Clouds
10:53 PM 51.1 °F - 36.0 °F 56% 29.94 in 10.0 mi SW 8.1 mph - N/A   Overcast
11:53 PM 50.0 °F - 36.0 °F 59% 29.94 in 10.0 mi SSW 3.5 mph - N/A   Overcast